Location: G�migny
(47.9646°N, 1.6950°E)
Time: 17:34:28
(UTC+00:00)

Cosmos 1300 - Pass Details

Date: 23 October 2019
Orbit: 511 x 515 km, 82.5° (Epoch: 21 November)

Event Time Altitude Azimuth Distance (km) Brightness Sun altitude
Rises 18:51:18 0° 201° (SSW) 2,620 6.5 -20.8°
Reaches altitude 10° 18:53:29 10° 207° (SSW) 1,738 5.6 -21.2°
Maximum altitude 18:57:11 49° 283° (WNW) 676 3.6 -21.8°
Drops below altitude 10° 19:00:55 10° 359° (N) 1,751 5.5 -22.4°
Sets 19:03:07 0° 5° (N) 2,643 6.3 -22.8°
